When you browse on this site, cookies collect data to enhance your experience and personalize the content and advertising you see.
Visit our Privacy Policy to learn more. By continuing to use the site, you agree to this use of cookies and data.
  • en Suisse
  • Liste des pays
  • À 7 jours
  • Température de l'eau
  • Carte satellitaire
  • Carte météo
  • Widgets météo
  • user-avatar
    Se connecter

    Météo par heure à Botvinevo

    Ce jour, 16 Juin, Dimanche

    Heure Température Précipitation Vent Pression Humidité
    00:00 +15°C° 0 mm 1 m/s 745 mmHg 94%
    01:00 +14°C° 0 mm 1 m/s 745 mmHg 94%
    02:00 +13°C° 0 mm 0 m/s 745 mmHg 94%
    03:00 +14°C° 0 mm 0 m/s 745 mmHg 93%
    04:00 +14°C° 0 mm 0 m/s 745 mmHg 92%
    05:00 +15°C° 0 mm 0 m/s 745 mmHg 92%
    06:00 +18°C° 0.2 mm 1 m/s 745 mmHg 89%
    07:00 +19°C° 0.2 mm 1 m/s 745 mmHg 87%
    08:00 +20°C° 0.2 mm 1 m/s 746 mmHg 84%
    09:00 +20°C° 0.6 mm 2 m/s 746 mmHg 81%
    10:00 +21°C° 0.6 mm 3 m/s 745 mmHg 77%
    11:00 +21°C° 0.6 mm 3 m/s 745 mmHg 73%
    12:00 +22°C° 0 mm 3 m/s 745 mmHg 70%
    13:00 +22°C° 0 mm 3 m/s 745 mmHg 66%
    14:00 +24°C° 0 mm 3 m/s 745 mmHg 63%
    15:00 +24°C° 0 mm 3 m/s 745 mmHg 65%
    16:00 +24°C° 0 mm 2 m/s 745 mmHg 67%
    17:00 +23°C° 0 mm 2 m/s 745 mmHg 69%
    18:00 +21°C° 0.1 mm 2 m/s 745 mmHg 75%
    19:00 +19°C° 0.1 mm 2 m/s 746 mmHg 81%
    20:00 +19°C° 0.1 mm 1 m/s 746 mmHg 86%
    21:00 +18°C° 0 mm 1 m/s 746 mmHg 87%
    22:00 +16°C° 0 mm 1 m/s 746 mmHg 88%
    23:00 +16°C° 0 mm 1 m/s 746 mmHg 89%

    Demain, 17 Juin, Lundi

    Heure Température Précipitation Vent Pression Humidité
    00:00 +15°C° 0 mm 1 m/s 746 mmHg 89%
    01:00 +15°C° 0 mm 1 m/s 746 mmHg 89%
    02:00 +15°C° 0 mm 1 m/s 746 mmHg 89%
    03:00 +15°C° 0 mm 1 m/s 746 mmHg 89%
    04:00 +16°C° 0 mm 1 m/s 746 mmHg 89%
    05:00 +16°C° 0 mm 1 m/s 746 mmHg 89%
    06:00 +19°C° 0 mm 1 m/s 746 mmHg 84%
    07:00 +20°C° 0 mm 1 m/s 747 mmHg 79%
    08:00 +22°C° 0 mm 1 m/s 747 mmHg 74%
    09:00 +23°C° 0 mm 2 m/s 747 mmHg 69%
    10:00 +24°C° 0 mm 2 m/s 747 mmHg 65%
    11:00 +25°C° 0 mm 3 m/s 747 mmHg 60%
    12:00 +25°C° 0.1 mm 3 m/s 746 mmHg 61%
    13:00 +25°C° 0.1 mm 3 m/s 746 mmHg 62%
    14:00 +25°C° 0.1 mm 3 m/s 746 mmHg 63%
    15:00 +25°C° 0.1 mm 2 m/s 746 mmHg 64%
    16:00 +25°C° 0.1 mm 2 m/s 746 mmHg 65%
    17:00 +25°C° 0.1 mm 2 m/s 746 mmHg 66%
    18:00 +24°C° 0.1 mm 1 m/s 746 mmHg 70%
    19:00 +22°C° 0.1 mm 1 m/s 746 mmHg 73%
    20:00 +19°C° 0.1 mm 0 m/s 746 mmHg 77%
    21:00 +21°C° 0.1 mm 1 m/s 746 mmHg 79%
    22:00 +20°C° 0.1 mm 1 m/s 746 mmHg 80%
    23:00 +20°C° 0.1 mm 1 m/s 746 mmHg 82%

    Après-demain, 18 Juin, Mardi

    Heure Température Précipitation Vent Pression Humidité
    00:00 +20°C° 0.1 mm 1 m/s 746 mmHg 85%
    01:00 +19°C° 0.1 mm 1 m/s 746 mmHg 87%
    02:00 +19°C° 0.1 mm 1 m/s 745 mmHg 90%
    03:00 +19°C° 0.1 mm 1 m/s 745 mmHg 90%
    04:00 +19°C° 0.1 mm 1 m/s 745 mmHg 91%
    05:00 +20°C° 0.1 mm 1 m/s 745 mmHg 91%
    06:00 +21°C° 0.4 mm 1 m/s 745 mmHg 88%
    07:00 +22°C° 0.4 mm 1 m/s 746 mmHg 85%
    08:00 +23°C° 0.4 mm 2 m/s 746 mmHg 82%
    09:00 +23°C° 1.1 mm 2 m/s 746 mmHg 80%
    10:00 +24°C° 1.1 mm 3 m/s 746 mmHg 77%
    11:00 +25°C° 1.1 mm 3 m/s 746 mmHg 75%
    12:00 +25°C° 0.5 mm 4 m/s 745 mmHg 75%
    13:00 +25°C° 0.5 mm 4 m/s 745 mmHg 74%
    14:00 +25°C° 0.5 mm 4 m/s 745 mmHg 73%
    15:00 +25°C° 0.1 mm 4 m/s 745 mmHg 73%
    16:00 +25°C° 0.1 mm 3 m/s 745 mmHg 72%
    17:00 +25°C° 0.1 mm 2 m/s 745 mmHg 71%
    18:00 +24°C° 0 mm 2 m/s 746 mmHg 74%
    19:00 +22°C° 0 mm 1 m/s 746 mmHg 78%
    20:00 +20°C° 0 mm 1 m/s 746 mmHg 81%
    21:00 +20°C° 0 mm 1 m/s 746 mmHg 81%
    22:00 +19°C° 0 mm 1 m/s 747 mmHg 82%
    23:00 +17°C° 0 mm 2 m/s 747 mmHg 82%

    19 Juin, Mercredi

    Heure Température Précipitation Vent Pression Humidité
    00:00 +17°C° 0 mm 2 m/s 747 mmHg 84%
    01:00 +16°C° 0 mm 2 m/s 747 mmHg 85%
    02:00 +16°C° 0 mm 2 m/s 747 mmHg 87%
    03:00 +16°C° 0 mm 2 m/s 747 mmHg 87%
    04:00 +17°C° 0 mm 2 m/s 748 mmHg 87%
    05:00 +17°C° 0 mm 2 m/s 748 mmHg 87%
    06:00 +18°C° 0 mm 2 m/s 748 mmHg 81%
    07:00 +20°C° 0 mm 3 m/s 748 mmHg 75%
    08:00 +21°C° 0 mm 3 m/s 748 mmHg 70%
    09:00 +22°C° 0 mm 3 m/s 748 mmHg 65%
    10:00 +24°C° 0 mm 3 m/s 748 mmHg 59%
    11:00 +25°C° 0 mm 3 m/s 749 mmHg 54%
    12:00 +26°C° 0 mm 3 m/s 748 mmHg 54%
    13:00 +26°C° 0 mm 3 m/s 748 mmHg 53%
    14:00 +26°C° 0 mm 2 m/s 748 mmHg 53%
    15:00 +26°C° 0 mm 2 m/s 748 mmHg 57%
    16:00 +26°C° 0 mm 2 m/s 748 mmHg 61%
    17:00 +26°C° 0 mm 2 m/s 748 mmHg 65%
    18:00 +24°C° 0 mm 1 m/s 748 mmHg 69%
    19:00 +22°C° 0 mm 1 m/s 748 mmHg 73%
    20:00 +20°C° 0 mm 1 m/s 748 mmHg 77%
    21:00 +20°C° 0 mm 1 m/s 748 mmHg 79%
    22:00 +19°C° 0 mm 1 m/s 749 mmHg 81%
    23:00 +16°C° 0 mm 0 m/s 749 mmHg 83%

    20 Juin, Jeudi

    Heure Température Précipitation Vent Pression Humidité
    00:00 +18°C° 0 mm 1 m/s 749 mmHg 84%
    01:00 +18°C° 0 mm 1 m/s 749 mmHg 86%
    02:00 +16°C° 0 mm 1 m/s 749 mmHg 87%
    03:00 +18°C° 0 mm 1 m/s 749 mmHg 86%
    04:00 +19°C° 0 mm 1 m/s 749 mmHg 85%
    05:00 +18°C° 0 mm 0 m/s 749 mmHg 84%
    06:00 +19°C° 0 mm 0 m/s 750 mmHg 78%
    07:00 +21°C° 0 mm 0 m/s 750 mmHg 72%
    08:00 +23°C° 0 mm 0 m/s 750 mmHg 66%
    09:00 +26°C° 0 mm 1 m/s 750 mmHg 61%
    10:00 +26°C° 0 mm 1 m/s 750 mmHg 56%
    11:00 +27°C° 0 mm 1 m/s 750 mmHg 51%
    12:00 +28°C° 0 mm 1 m/s 750 mmHg 50%
    13:00 +28°C° 0 mm 1 m/s 749 mmHg 49%
    14:00 +28°C° 0 mm 1 m/s 749 mmHg 48%
    15:00 +28°C° 0 mm 1 m/s 749 mmHg 53%
    16:00 +28°C° 0 mm 1 m/s 749 mmHg 57%
    17:00 +28°C° 0 mm 1 m/s 749 mmHg 61%
    18:00 +26°C° 0 mm 1 m/s 749 mmHg 65%
    19:00 +23°C° 0 mm 2 m/s 749 mmHg 70%
    20:00 +20°C° 0 mm 2 m/s 749 mmHg 74%
    21:00 +20°C° 0 mm 2 m/s 749 mmHg 75%
    22:00 +19°C° 0 mm 2 m/s 749 mmHg 75%
    23:00 +19°C° 0 mm 1 m/s 750 mmHg 76%

    21 Juin, Vendredi

    Heure Température Précipitation Vent Pression Humidité
    00:00 +19°C° 0 mm 1 m/s 750 mmHg 79%
    01:00 +18°C° 0 mm 1 m/s 750 mmHg 81%
    02:00 +18°C° 0 mm 1 m/s 750 mmHg 84%
    03:00 +18°C° 0 mm 1 m/s 750 mmHg 84%
    04:00 +19°C° 0 mm 1 m/s 750 mmHg 84%
    05:00 +20°C° 0 mm 1 m/s 750 mmHg 85%
    06:00 +20°C° 0 mm 2 m/s 750 mmHg 80%
    07:00 +23°C° 0 mm 2 m/s 750 mmHg 75%
    08:00 +25°C° 0 mm 2 m/s 750 mmHg 71%
    09:00 +26°C° 0 mm 3 m/s 750 mmHg 67%
    10:00 +26°C° 0 mm 3 m/s 750 mmHg 63%
    11:00 +27°C° 0 mm 4 m/s 750 mmHg 59%
    12:00 +27°C° 0 mm 4 m/s 749 mmHg 59%
    13:00 +27°C° 0 mm 4 m/s 749 mmHg 60%
    14:00 +28°C° 0 mm 4 m/s 749 mmHg 60%
    15:00 +27°C° 0 mm 4 m/s 749 mmHg 64%
    16:00 +27°C° 0 mm 3 m/s 748 mmHg 67%
    17:00 +27°C° 0 mm 3 m/s 748 mmHg 71%
    18:00 +25°C° 0 mm 3 m/s 748 mmHg 74%
    19:00 +24°C° 0 mm 3 m/s 748 mmHg 78%
    20:00 +21°C° 0 mm 3 m/s 748 mmHg 81%
    21:00 +20°C° 0 mm 3 m/s 748 mmHg 83%
    22:00 +20°C° 0 mm 3 m/s 748 mmHg 85%
    23:00 +19°C° 0 mm 3 m/s 748 mmHg 87%
    Voir plus